Regional Weather Roundup
Issued by NWS Green Bay, WI

Home | Current Version | Previous Version | Text Only | Print | Product List | Glossary On
Versions: 1 2 3 4 5 6 7 8 9 10 11 12 13 14 15 16 17 18 19 20 21 22 23 24 25 26 27 28 29 30 31 32 33 34 35 36 37 38 39 40 41 42 43 44 45 46 47 48 49 50
771
ASUS43 KGRB 172211
RWRGRB

NORTH-CENTRAL AND NORTHEAST WISCONSIN REGIONAL WEATHER ROUNDUP
NATIONAL WEATHER SERVICE GREEN BAY WI
500 PM CDT THU AUG 17 2017

WIZ005-009-010>012-018-019-172300-
NORTH CENTRAL WISCONSIN

CITY           SKY/WX    TMP DP  RH WIND       PRES   REMARKS
IRONWOOD       LGT RAIN  61  60  97 NW13      29.61R
MANITOWISH WTR CLOUDY    67  67 100 NW10G17   29.58S
ARBOR VITAE    CLOUDY    69  67  92 N7        29.58R
EAGLE RIVER    PTSUNNY   70  65  86 NW8       29.57R
LAND O LAKES   CLOUDY    68  64  87 NW5       29.59R
RHINELANDER    LGT RAIN  69  68  96 W9        29.57R
PHILLIPS       CLOUDY    67  66  97 NW12G18   29.60R
ANTIGO         LGT RAIN  69  67  95 W8        29.56S
TOMAHAWK         N/A     69  67  91 NW6       29.58R
MERRILL        CLOUDY    72  70  94 W10G16    29.57R
$$

WIZ013-073-172300-
NORTHEAST WISCONSIN

CITY           SKY/WX    TMP DP  RH WIND       PRES   REMARKS
IRON MOUNTAIN  CLOUDY    73  64  73 S8        29.53S
MARINETTE      CLOUDY    72  67  84 SW10      29.54F
OCONTO         PTSUNNY   74  66  76 SW10G23   29.54F
$$

WIZ017-030-035>037-045-172300-
CENTRAL WISCONSIN

CITY           SKY/WX    TMP DP  RH WIND       PRES   REMARKS
MEDFORD        CLOUDY    66  63  91 W16G23    29.61R
WAUSAU         LGT RAIN  73  66  78 W17G23    29.56R
MOSINEE        PTSUNNY   72  66  83 W16G22    29.59R
MARSHFIELD     CLOUDY    67  63  87 W20G30    29.61R
WISC RAPIDS    LGT RAIN  69  67  93 W15G26    29.63R FOG
STEVENS POINT  CLOUDY    69  68  95 SW18      29.59S
WAUPACA        PTSUNNY   75  67  77 SW14      29.59R
SHAWANO        CLOUDY    74  67  77 SW15G24   29.54S
CLINTONVILLE   LGT RAIN  73  64  73 SW12G18   29.56S
WAUTOMA        CLOUDY    75  66  73 SW10G20   29.61R
$$

WIZ038-039-048-051-172300-
FOX VALLEY

CITY           SKY/WX    TMP DP  RH WIND       PRES   REMARKS
NWS GREEN BAY  CLOUDY    75  67  76 SW14G22   29.56F
APPLETON       LGT RAIN  72  63  73 W20G25    29.58S
OSHKOSH        MOSUNNY   76  66  71 SW10G21   29.59S
FOND DU LAC    PTSUNNY   75  64  68 SW13G25   29.62S
$$

WIZ022-050-052-172300-
EAST CENTRAL WISCONSIN

CITY           SKY/WX    TMP DP  RH WIND       PRES   REMARKS
EPHRAIM        LGT RAIN  71  67  89 SW7       29.55S
WASHINGTON ISL MOCLDY    71  69  93 S12G18    29.55F FOG
STURGEON BAY   LGT RAIN  73  67  81 SW13G20   29.57S
MANITOWOC      PTSUNNY   76  65  68 SW13G25   29.60S
SHEBOYGAN      LGT RAIN  74  68  81 SW18G25   29.62S
$$

LMZ563-521-522-541>543-172300-
LAKESHORE

STATION/POSITION TIME  TEMP    WIND        PRES    VSBY  WAVE
                       AIR SEA DIR/SP/G                  HT/PER
                 (UTC) (F)     (DEG/KT/KT) (MB)    (MI)  (FT/S)
SHEBOYGAN LKSHOR 2100   74     230/ 15/ 18 1002.3R
KEWAUNEE LKSHORE 2148   76     220/ 12/ 17 1001.1R
NORTHPORT PIER   2140   73     170/  9/ 16 1000.7F
N MID LAKE BUOY  2050   69 68  180/ 17/ 21 1001.7          4/ 5
S GREEN BAY BUOY 2200   73 72  200/ 19/ 23 1000.4F
SISTER BAY LKSHO 2203   70     200/ 15/ 17   N/A
MENOMINEE LKSHOR 2148   73     210/ 10/ 18 1000.2F
$$




USA.gov is the U.S. government's official web portal to all federal, state and local government web resources and services.